Fort Madison, IA

6:59 PM CST on December 08, 2016 (GMT -0600)
Fort Madison Municipal

Weather History for KFSW - April, 2013

Change the Weather History Date:

Monday, April 8, 2013

  Actual Average Record
Temperature  
Mean Temperature 64 °F -  
Max Temperature 73 °F 61 °F 86 °F (2001)
Min Temperature 55 °F 39 °F 19 °F (1972)
Degree Days  
Heating Degree Days 1    
Growing Degree Days 14 (Base 50)    
Moisture  
Dew Point 55 °F    
Average Humidity 75    
Maximum Humidity 94    
Minimum Humidity 52    
Precipitation  
Precipitation 0.68 in - - ()
Sea Level Pressure  
Sea Level Pressure 29.75 in    
Wind  
Wind Speed 9 mph (South)    
Max Wind Speed 22 mph    
Max Gust Speed 30 mph    
Visibility 10 miles    
Events Rain    
Averages and records for this station are not official NWS values.
T = Trace of Precipitation, MM = Missing Value Source: NWS Daily Summary

Daily Weather History Graph

Daily Weather History Graph

Search for Another Location

Airport or City:

Trip Planner

Search our weather history database for the weather conditions in past years. The results will help you decide how hot, cold, wet, or windy it might be!

Date:

Astronomy

Apr. 08, 2013 Rise Set
Actual Time 6:37 AM CDT 7:37 PM CDT
Civil Twilight 6:09 AM CDT 8:05 PM CDT
Nautical Twilight 5:36 AM CDT 8:38 PM CDT
Astronomical Twilight 5:01 AM CDT 9:13 PM CDT
Moon 5:27 AM CDT (4/8) 6:12 PM CDT (4/8)
Length of Visible Light 13h 56m
Length of Day
13h 00m
Waning Crescent, 3% of the Moon is Illuminated
Apr 8
Waning Crescent
Apr 10
New
Apr 18
First Quarter
Apr 25
Full
May 2
Last Quarter

Hourly Weather History & Observations

Time (CDT) Temp. Dew Point Humidity Pressure Visibility Wind Dir Wind Speed Gust Speed Precip Events Conditions
12:15 AM 60.8 °F 42.8 °F 52% 29.74 in 10.0 mi SE 9.2 mph - N/A   Light Drizzle
12:35 AM 59.0 °F 46.4 °F 63% 29.75 in 7.0 mi SSE 9.2 mph - 0.01 in Rain Rain
12:55 AM 57.2 °F 50.0 °F 77% 29.74 in 10.0 mi South 11.5 mph - 0.05 in Rain Rain
1:15 AM 57.2 °F 51.8 °F 82% 29.72 in 10.0 mi South 8.1 mph - 0.03 in Rain Light Rain
1:35 AM 55.4 °F 51.8 °F 88% 29.73 in 10.0 mi SSW 9.2 mph - 0.06 in Rain Rain
1:55 AM 57.2 °F 53.6 °F 88% 29.72 in 10.0 mi South 10.4 mph - 0.14 in Rain Rain
2:15 AM 57.2 °F 55.4 °F 94% 29.71 in 7.0 mi South 5.8 mph - 0.09 in Rain Heavy Rain
2:35 AM 57.2 °F 55.4 °F 94% 29.67 in 5.0 mi SE 8.1 mph - 0.18 in Rain Rain
2:55 AM 57.2 °F 55.4 °F 94% 29.63 in 4.0 mi East 13.8 mph - 0.32 in Rain Heavy Rain
3:15 AM 57.2 °F 55.4 °F 94% 29.59 in 5.0 mi ESE 16.1 mph 19.6 mph 0.12 in Rain Heavy Rain
3:35 AM 57.2 °F 55.4 °F 94% 29.58 in 7.0 mi SE 10.4 mph - 0.16 in Rain Light Rain
3:55 AM 59.0 °F 57.2 °F 94% 29.58 in 10.0 mi South 8.1 mph - 0.17 in   Overcast
4:15 AM 60.8 °F 57.2 °F 88% 29.57 in 10.0 mi South 16.1 mph 19.6 mph N/A   Overcast
4:35 AM 60.8 °F 55.4 °F 82% 29.58 in 10.0 mi SSW 21.9 mph 29.9 mph N/A   Overcast
4:55 AM 59.0 °F 53.6 °F 82% 29.58 in 10.0 mi SW 20.7 mph 25.3 mph N/A   Overcast
5:15 AM 59.0 °F 53.6 °F 82% 29.60 in 10.0 mi SW 18.4 mph 28.8 mph N/A   Overcast
5:35 AM 57.2 °F 53.6 °F 88% 29.62 in 10.0 mi SW 15.0 mph 25.3 mph N/A   Overcast
5:55 AM 57.2 °F 53.6 °F 88% 29.64 in 10.0 mi WSW 11.5 mph 19.6 mph N/A   Overcast
6:15 AM 57.2 °F 53.6 °F 88% 29.67 in 10.0 mi West 13.8 mph - N/A   Overcast
6:35 AM 57.2 °F 53.6 °F 88% 29.69 in 10.0 mi West 9.2 mph 17.3 mph N/A   Overcast
6:55 AM 55.4 °F 53.6 °F 94% 29.70 in 10.0 mi West 8.1 mph - N/A   Mostly Cloudy
7:15 AM 55.4 °F 53.6 °F 94% 29.72 in 10.0 mi West 5.8 mph - N/A   Overcast
7:35 AM 57.2 °F 53.6 °F 88% 29.74 in 10.0 mi WSW 4.6 mph - N/A   Overcast
7:55 AM 57.2 °F 53.6 °F 88% 29.75 in 10.0 mi WSW 3.5 mph - N/A   Overcast
8:15 AM 57.2 °F 53.6 °F 88% 29.76 in 10.0 mi WSW 5.8 mph - N/A   Overcast
8:35 AM 57.2 °F 53.6 °F 88% 29.75 in 10.0 mi SW 5.8 mph - N/A   Overcast
8:55 AM 57.2 °F 55.4 °F 94% 29.76 in 10.0 mi SW 4.6 mph - N/A   Overcast
9:15 AM 57.2 °F 55.4 °F 94% 29.76 in 10.0 mi WSW 6.9 mph - N/A   Overcast
9:35 AM 59.0 °F 55.4 °F 88% 29.76 in 10.0 mi WSW 8.1 mph - N/A   Mostly Cloudy
9:55 AM 60.8 °F 55.4 °F 82% 29.77 in 10.0 mi SW 8.1 mph - N/A   Mostly Cloudy
10:15 AM 60.8 °F 55.4 °F 82% 29.77 in 10.0 mi WSW 6.9 mph - N/A   Scattered Clouds
10:35 AM 62.6 °F 55.4 °F 77% 29.77 in 10.0 mi SW 8.1 mph - N/A   Clear
10:55 AM 64.4 °F 55.4 °F 73% 29.77 in 10.0 mi SW 5.8 mph - N/A   Clear
11:15 AM 62.6 °F 55.4 °F 77% 29.78 in 10.0 mi South 5.8 mph - N/A   Clear
11:35 AM 64.4 °F 55.4 °F 73% 29.78 in 10.0 mi SSW 4.6 mph - N/A   Clear
11:55 AM 66.2 °F 53.6 °F 64% 29.78 in 10.0 mi West 10.4 mph - N/A   Clear
12:15 PM 68.0 °F 53.6 °F 60% 29.77 in 10.0 mi WSW 6.9 mph - N/A   Scattered Clouds
12:35 PM 69.8 °F 55.4 °F 60% 29.78 in 10.0 mi WNW 8.1 mph - N/A   Clear
12:55 PM 69.8 °F 55.4 °F 60% 29.78 in 10.0 mi West 5.8 mph - N/A   Scattered Clouds
1:15 PM 69.8 °F 53.6 °F 56% 29.77 in 10.0 mi WSW 5.8 mph - N/A   Scattered Clouds
1:35 PM 69.8 °F 53.6 °F 56% 29.77 in 10.0 mi West 4.6 mph - N/A   Mostly Cloudy
1:55 PM 69.8 °F 55.4 °F 60% 29.77 in 10.0 mi South 6.9 mph - N/A   Overcast
2:15 PM 69.8 °F 55.4 °F 60% 29.77 in 10.0 mi SW 8.1 mph - N/A   Overcast
2:35 PM 71.6 °F 55.4 °F 57% 29.77 in 10.0 mi SSW 5.8 mph - N/A   Mostly Cloudy
2:55 PM 71.6 °F 55.4 °F 57% 29.77 in 10.0 mi SSW 10.4 mph - N/A   Scattered Clouds
3:15 PM 73.4 °F 57.2 °F 57% 29.77 in 10.0 mi South 13.8 mph - N/A   Scattered Clouds
3:35 PM 71.6 °F 57.2 °F 60% 29.77 in 10.0 mi SSW 8.1 mph - N/A   Mostly Cloudy
3:55 PM 73.4 °F 57.2 °F 57% 29.77 in 10.0 mi South 9.2 mph - N/A   Scattered Clouds
4:15 PM 73.4 °F 57.2 °F 57% 29.78 in 10.0 mi South 11.5 mph - N/A   Clear
4:35 PM 71.6 °F 55.4 °F 57% 29.77 in 10.0 mi SSW 5.8 mph - N/A   Clear
4:55 PM 73.4 °F 57.2 °F 57% 29.78 in 10.0 mi SSW 8.1 mph - N/A   Clear
5:15 PM 71.6 °F 57.2 °F 60% 29.78 in 10.0 mi South 8.1 mph - N/A   Clear
5:35 PM 71.6 °F 57.2 °F 60% 29.79 in 10.0 mi South 8.1 mph - N/A   Clear
5:55 PM 71.6 °F 57.2 °F 60% 29.79 in 10.0 mi South 6.9 mph - N/A   Clear
6:15 PM 69.8 °F 55.4 °F 60% 29.79 in 10.0 mi South 5.8 mph - N/A   Clear
6:35 PM 69.8 °F 57.2 °F 64% 29.78 in 10.0 mi SE 5.8 mph - N/A   Clear
6:55 PM 69.8 °F 57.2 °F 64% 29.80 in 10.0 mi Calm Calm - N/A   Clear
7:15 PM 68.0 °F 59.0 °F 73% 29.81 in 10.0 mi Calm Calm - N/A   Scattered Clouds
7:35 PM 66.2 °F 57.2 °F 73% 29.80 in 10.0 mi SE 4.6 mph - N/A   Scattered Clouds
7:55 PM 66.2 °F 59.0 °F 78% 29.81 in 10.0 mi ESE 4.6 mph - N/A   Clear
8:15 PM 66.2 °F 57.2 °F 73% 29.82 in 10.0 mi Calm Calm - N/A   Clear
8:35 PM 66.2 °F 57.2 °F 73% 29.82 in 10.0 mi ESE 4.6 mph - N/A   Clear
8:55 PM 66.2 °F 57.2 °F 73% 29.83 in 10.0 mi East 3.5 mph - N/A   Scattered Clouds
9:15 PM 66.2 °F 57.2 °F 73% 29.84 in 10.0 mi East 3.5 mph - N/A   Mostly Cloudy
9:35 PM 66.2 °F 57.2 °F 73% 29.84 in 10.0 mi East 4.6 mph - N/A   Overcast
9:55 PM 64.4 °F 57.2 °F 77% 29.84 in 10.0 mi ENE 4.6 mph - N/A   Mostly Cloudy
10:15 PM 64.4 °F 57.2 °F 77% 29.84 in 10.0 mi East 5.8 mph - N/A   Mostly Cloudy
10:35 PM 64.4 °F 57.2 °F 77% 29.84 in 10.0 mi East 4.6 mph - N/A   Mostly Cloudy
10:55 PM 64.4 °F 57.2 °F 77% 29.84 in 10.0 mi East 5.8 mph - N/A   Mostly Cloudy
11:15 PM 64.4 °F 57.2 °F 77% 29.84 in 10.0 mi East 6.9 mph - N/A   Scattered Clouds
11:35 PM 64.4 °F 57.2 °F 77% 29.84 in 10.0 mi East 8.1 mph - N/A   Scattered Clouds
11:55 PM 64.4 °F 57.2 °F 77% 29.83 in 10.0 mi East 8.1 mph - N/A   Mostly Cloudy